Location: L'Union
(43.6635°N, 1.4699°E)
Time: 08:48:00
(UTC+02:00)

X-37B - Visible Passes

Search period start: 04 October 2022 00:00
Search period end: 14 October 2022 00:00
Orbit: 329 x 342 km, 45.0° (Epoch: 29 September)

Date Brightness Start Highest point End Pass type
(mag) Time Alt. Az. Time Alt. Az. Time Alt. Az.
04 Oct 0.4 06:29:32 54° SW 06:29:52 59° SSW 06:32:43 10° ESE visible
05 Oct 1.5 06:49:24 24° WSW 06:50:11 28° SSW 06:52:43 10° SSE visible
06 Oct 3.7 05:38:08 10° ESE 05:38:08 10° ESE 05:38:09 10° ESE visible
06 Oct 2.6 07:09:23 11° WSW 07:10:22 13° SW 07:11:44 10° S visible
